TimeMST,TemperatureF,Dew PointF,Humidity,Sea Level PressureIn,VisibilityMPH,Wind Direction,Wind SpeedMPH,Gust SpeedMPH,PrecipitationIn,Events,Conditions,WindDirDegrees,DateUTC
12:53 AM,15.1,12.0,88,30.42,10.0,Calm,Calm,-,N/A,,Clear,0,2014-01-21 07:53:00
1:53 AM,9.0,6.1,88,30.42,10.0,NW,3.5,-,N/A,,Clear,320,2014-01-21 08:53:00
2:53 AM,9.0,6.1,88,30.42,10.0,Variable,4.6,-,N/A,,Clear,0,2014-01-21 09:53:00
3:53 AM,12.0,7.0,80,30.40,10.0,ESE,5.8,-,N/A,,Clear,120,2014-01-21 10:53:00
4:53 AM,9.0,5.0,84,30.41,10.0,Calm,Calm,-,N/A,,Clear,0,2014-01-21 11:53:00
5:53 AM,6.1,1.9,83,30.43,10.0,Calm,Calm,-,N/A,,Clear,0,2014-01-21 12:53:00
6:53 AM,7.0,3.0,84,30.44,10.0,SW,3.5,-,N/A,,Clear,220,2014-01-21 13:53:00
7:53 AM,6.1,1.9,83,30.45,10.0,WSW,3.5,-,N/A,,Clear,240,2014-01-21 14:53:00
8:53 AM,12.0,8.1,84,30.44,10.0,Calm,Calm,-,N/A,,Clear,0,2014-01-21 15:53:00
9:53 AM,14.0,10.9,88,30.44,10.0,Calm,Calm,-,N/A,,Clear,0,2014-01-21 16:53:00
10:53 AM,19.9,12.0,71,30.45,10.0,Calm,Calm,-,N/A,,Clear,0,2014-01-21 17:53:00
11:53 AM,24.1,15.1,69,30.40,10.0,Calm,Calm,-,N/A,,Clear,0,2014-01-21 18:53:00
12:53 PM,27.0,16.0,63,30.38,10.0,NNW,3.5,-,N/A,,Clear,340,2014-01-21 19:53:00
1:53 PM,30.0,17.1,59,30.36,10.0,North,4.6,-,N/A,,Clear,350,2014-01-21 20:53:00
2:53 PM,32.0,18.0,56,30.34,10.0,WNW,5.8,-,N/A,,Clear,300,2014-01-21 21:53:00
3:53 PM,30.9,18.0,59,30.34,10.0,WNW,4.6,-,N/A,,Clear,300,2014-01-21 22:53:00
4:53 PM,28.9,18.0,64,30.34,10.0,WNW,3.5,-,N/A,,Clear,300,2014-01-21 23:53:00
5:53 PM,24.1,17.1,75,30.37,10.0,WNW,4.6,-,N/A,,Clear,300,2014-01-22 00:53:00
6:53 PM,19.9,15.1,81,30.39,10.0,NW,4.6,-,N/A,,Clear,310,2014-01-22 01:53:00
7:53 PM,17.1,12.9,84,30.40,10.0,Calm,Calm,-,N/A,,Clear,0,2014-01-22 02:53:00
8:53 PM,16.0,12.9,88,30.39,10.0,West,4.6,-,N/A,,Clear,260,2014-01-22 03:53:00
9:53 PM,18.0,14.0,84,30.37,10.0,Calm,Calm,-,N/A,,Overcast,0,2014-01-22 04:53:00
10:53 PM,18.0,14.0,84,30.37,10.0,Calm,Calm,-,N/A,,Overcast,0,2014-01-22 05:53:00
11:53 PM,19.9,15.1,81,30.35,10.0,Calm,Calm,-,N/A,,Overcast,0,2014-01-22 06:53:00